Regional Weather Roundup
Issued by NWS

Home | Current Version | Previous Version | Graphics & Text | Print | Product List | Glossary On
Versions: 1 2 3 4 5 6 7 8 9 10 11 12 13 14 15 16 17 18 19 20 21 22 23 24 25 26 27 28 29 30 31 32 33 34 35 36 37 38 39 40 41 42 43 44 45 46 47 48 49 50
365
ASUS45 KCYS 200410
RWRWY

WYOMING REGIONAL WEATHER ROUNDUP
NATIONAL WEATHER SERVICE CHEYENNE WY
900 PM MST MON FEB 19 2018

NOTE:  "FAIR" INDICATES FEW OR NO CLOUDS BELOW 12,000 FEET
WITH NO SIGNIFICANT WEATHER AND/OR OBSTRUCTIONS TO VISIBILITY.

WYZ001-200500-
YELLOWSTONE NATIONAL PARK

CITY           SKY/WX    TMP DP  RH WIND       PRES   REMARKS
LK YELLOWSTONE   N/A    -12 -16  82 CALM      29.58R
W YELLOWSTONE  NOT AVBL

$$
WYZ002>013-054>058-071-098>099-200500-
NORTHERN WYOMING

CITY           SKY/WX    TMP DP  RH WIND       PRES   REMARKS
JACKSON        FAIR       9   0  67 N8        29.60R WCI  -3
CODY           CLOUDY    -5 -10  79 NE7       29.84S WCI -19
GREYBULL       CLOUDY    -2  -6  83 W8        29.94R WCI -17
WORLAND        CLOUDY    -4  -8  83 CALM      29.93R FOG
SHERIDAN       CLOUDY    -2  -7  79 W9        29.95R HAZE    WCI -18
BUFFALO        FAIR      -7 -12  79 N7        29.83R WCI -21
GILLETTE       CLOUDY    -5  -9  83 NW9       29.87R FOG     WCI -22
HULETT         LGT SNOW  -4  -8  84 MISG      29.89R
NEWCASTLE      CLOUDY     1  -4  78 CALM      29.85R HAZE

$$
WYZ014>020-022>026-101>103-200500-
CENTRAL WYOMING

CITY           SKY/WX    TMP DP  RH WIND       PRES   REMARKS
BIG PINEY      CLOUDY     0  -5  79 SE10      29.60R WCI -16
PINEDALE       CLOUDY     1  -4  78 SE5       29.61S HAZE    WCI  -8
DUBOIS         NOT AVBL
LANDER         CLOUDY    -2  -6  83 SE5       29.76R WCI -12
RIVERTON       CLOUDY    -3  -9  75 SE7       29.78R HAZE    WCI -16
CASPER         FAIR      -7 -10  87 NW7       29.80R WCI -21
DOUGLAS        FLURRIES  -1  -6  79 W6        29.82R WCI -13

$$
WYZ021-027>030-104>119-200500-
SOUTHERN WYOMING

CITY           SKY/WX    TMP DP  RH WIND       PRES   REMARKS
EVANSTON       CLOUDY     9   4  80 W12       29.57S WCI  -6
FORT BRIDGER   LGT SNOW   1  -4  78 W5        29.60R WCI  -8
ROCK SPRINGS   LGT SNOW  -2  -9  72 E9        29.65R WCI -18
DIXON          LGT SNOW   1  -4  77 NW8       29.64S WCI -12
RAWLINS        CLOUDY    -5 -11  75 NW7       29.61R HAZE    WCI -19
SARATOGA       LGT SNOW  -4  -8  84 N6        29.61R WCI -16
LARAMIE        LGT SNOW  -8 -11  86 N14       29.53R FOG     WCI -29
CHEYENNE       LGT SNOW  -3  -7  82 N10       29.66R FOG     WCI -20
TORRINGTON     CLOUDY     0  -5  79 N8        29.86R WCI -14
PINE BLUFFS    CLOUDY     0  -4  85 MISG      29.76R

$$




USA.gov is the U.S. government's official web portal to all federal, state and local government web resources and services.